Location: Lima
(44.6384°N, 112.5920°W)
Time: 00:51:42
(UTC+00:00)

DUCHIFAT 1 - Pass Details

Date: 02 May 2024
Orbit: 538 x 556 km, 98.1° (Epoch: 19 May)

Event Time Altitude Azimuth Distance (km) Brightness Sun altitude
Rises 11:41:10 0° 21° (NNE) 2,750 ? -6.7°
Reaches altitude 10° 11:43:26 10° 29° (NNE) 1,846 ? -6.4°
Maximum altitude 11:47:10 38° 98° (E) 859 ? -5.8°
Drops below altitude 10° 11:50:51 10° 168° (SSE) 1,820 ? -5.2°
Sets 11:53:04 0° 176° (S) 2,704 ? -4.9°
